Weather History for KRCA - February, 2013

Change the Weather History Date:

Tuesday, February 26, 2013

  Actual Average Record
Temperature  
Mean Temperature 31 °F -  
Max Temperature 42 °F 35 °F 57 °F (2004)
Min Temperature 20 °F 16 °F -6 °F (2011)
Degree Days  
Heating Degree Days 34    
Moisture  
Dew Point 25 °F    
Average Humidity 77    
Maximum Humidity 100    
Minimum Humidity 48    
Precipitation  
Precipitation 0.00 in - - ()
Sea Level Pressure  
Sea Level Pressure 30.00 in    
Wind  
Wind Speed 15 mph (NNW)    
Max Wind Speed 36 mph    
Max Gust Speed 43 mph    
Visibility 8 miles    
Events Snow    
Averages and records for this station are not official NWS values.
T = Trace of Precipitation, MM = Missing Value Source: NWS Daily Summary

Daily Weather History Graph

Daily Weather History Graph

Search for Another Location

Airport or City:

Trip Planner

Search our weather history database for the weather conditions in past years. The results will help you decide how hot, cold, wet, or windy it might be!

Date:

Astronomy

Feb. 26, 2013 Rise Set
Actual Time 6:33 AM MST 5:37 PM MST
Civil Twilight 6:04 AM MST 6:06 PM MST
Nautical Twilight 5:31 AM MST 6:39 PM MST
Astronomical Twilight 4:57 AM MST 7:13 PM MST
Moon 7:01 PM MST (2/26) 6:34 AM MST (2/26)
Length of Visible Light 12h 01m
Length of Day
11h 03m
Full, 99% of the Moon is Illuminated
Feb 26
Full
Mar 4
Last Quarter
Mar 11
New
Mar 19
First Quarter
Mar 27
Full

Hourly Weather History & Observations

Time (MST) Temp. Windchill Dew Point Humidity Pressure Visibility Wind Dir Wind Speed Gust Speed Precip Events Conditions
12:55 AM 24.3 °F - 9.5 °F 53% 29.84 in 10.0 mi Calm Calm - N/A   Clear
1:55 AM 27.3 °F 18.4 °F 9.7 °F 48% 29.84 in 10.0 mi NNW 9.2 mph - N/A   Clear
2:55 AM 27.3 °F 16.6 °F 13.6 °F 56% 29.83 in 10.0 mi North 12.7 mph - N/A   Clear
3:55 AM 20.7 °F 10.2 °F 12.6 °F 71% 29.86 in 10.0 mi NNW 9.2 mph - N/A   Clear
4:55 AM 21.4 °F 15.1 °F 13.1 °F 70% 29.88 in 10.0 mi NNW 4.6 mph - N/A   Clear
5:55 AM 20.1 °F - 11.8 °F 70% 29.91 in 10.0 mi Calm Calm - N/A   Clear
6:55 AM 20.1 °F 12.3 °F 12.4 °F 72% 29.92 in 10.0 mi WNW 5.8 mph - N/A   Clear
7:55 AM 33.6 °F 20.8 °F 24.1 °F 68% 29.89 in 10.0 mi NNW 25.3 mph 34.5 mph N/A   Clear
8:55 AM 36.3 °F 23.9 °F 23.9 °F 61% 29.90 in 10.0 mi NNW 27.6 mph 34.5 mph N/A   Partly Cloudy
9:55 AM 38.8 °F 28.5 °F 25.3 °F 58% 29.93 in 10.0 mi NNW 21.9 mph 33.4 mph N/A   Partly Cloudy
10:55 AM 41.5 °F 32.4 °F 23.5 °F 49% 29.93 in 10.0 mi North 20.7 mph 31.1 mph N/A   Partly Cloudy
11:55 AM 42.4 °F 34.1 °F 26.4 °F 53% 29.94 in 10.0 mi NNW 18.4 mph 28.8 mph N/A   Mostly Cloudy
12:55 PM 40.1 °F 28.4 °F 29.5 °F 66% 29.94 in 10.0 mi NW 31.1 mph 36.8 mph N/A   Overcast
1:55 PM 41.2 °F 29.9 °F 30.7 °F 66% 29.95 in 10.0 mi NW 31.1 mph 38.0 mph N/A   Mostly Cloudy
2:37 PM 35.6 °F 21.5 °F 30.2 °F 81% 29.97 in 10.0 mi NW 35.7 mph 42.6 mph N/A Snow Light Snow
2:55 PM 35.4 °F 22.1 °F 30.0 °F 81% 29.99 in 10.0 mi NW 31.1 mph 39.1 mph 0.00 in Snow Light Snow
3:39 PM 35.6 °F 22.5 °F 32.0 °F 87% 30.02 in 10.0 mi NW 29.9 mph 35.7 mph N/A Snow Light Snow
3:51 PM 33.8 °F 21.0 °F 32.0 °F 93% 30.03 in 2.5 mi NW 25.3 mph 33.4 mph N/A Snow Light Snow
3:55 PM 34.3 °F 21.3 °F 31.6 °F 90% 30.04 in 2.0 mi NW 27.6 mph 35.7 mph 0.00 in Snow Light Snow
4:06 PM 33.8 °F 21.0 °F 32.0 °F 93% 30.04 in 1.0 mi NW 25.3 mph 35.7 mph N/A Snow Light Snow
4:41 PM 33.8 °F 21.6 °F 30.2 °F 87% 30.06 in 3.0 mi NNW 23.0 mph - N/A Snow Light Snow
4:50 PM 33.8 °F 21.3 °F 30.2 °F 87% 30.06 in 4.0 mi NNW 24.2 mph 31.1 mph N/A Snow Light Snow
4:55 PM 33.6 °F 21.3 °F 30.7 °F 89% 30.07 in 5.0 mi NNW 23.0 mph 31.1 mph 0.00 in Snow Light Snow
5:55 PM 32.9 °F 20.7 °F 30.6 °F 91% 30.11 in 3.0 mi NNW 21.9 mph - 0.00 in Snow Light Snow
6:01 PM 32.0 °F 20.1 °F 32.0 °F 100% 29.99 in 2.0 mi NNW 19.6 mph - N/A Snow Light Snow
6:22 PM 32.0 °F 20.8 °F 32.0 °F 100% 29.99 in 3.0 mi NW 17.3 mph - N/A Snow Light Snow
6:45 PM 32.0 °F 21.2 °F 32.0 °F 100% 30.00 in 7.0 mi NW 16.1 mph - N/A   Overcast
6:51 PM 32.0 °F 20.8 °F 30.2 °F 93% 30.13 in 10.0 mi NW 17.3 mph - N/A   Overcast
6:55 PM 32.5 °F 21.9 °F 30.0 °F 90% 30.13 in 10.0 mi NW 16.1 mph - 0.00 in   Overcast
7:55 PM 32.7 °F 22.1 °F 28.0 °F 83% 30.11 in 10.0 mi NNW 16.1 mph - N/A   Overcast
8:55 PM 31.5 °F 19.8 °F 25.0 °F 77% 30.14 in 10.0 mi North 18.4 mph - N/A   Mostly Cloudy
9:55 PM 29.5 °F 17.6 °F 23.7 °F 79% 30.15 in 10.0 mi North 17.3 mph - N/A   Mostly Cloudy
10:55 PM 28.4 °F 17.0 °F 22.5 °F 78% 30.16 in 10.0 mi NNW 15.0 mph - N/A   Overcast
11:55 PM 28.9 °F 17.7 °F 22.8 °F 78% 30.17 in 10.0 mi NNW 15.0 mph - N/A   Overcast